owner,sensor,date,latitude,longitude,air_temperature,qcFlag 
WAVCIS,ioos:station:WAVCIS:CSI06:1,2009-04-01T00:00:00Z,28.8667,-90.4833,21.2,11111222 
WAVCIS,ioos:station:WAVCIS:CSI06:1,2009-04-01T01:00:00Z,28.8667,-90.4833,20.82,11111222 
WAVCIS,ioos:station:WAVCIS:CSI06:1,2009-04-01T02:00:00Z,28.8667,-90.4833,20.81,11111222 
WAVCIS,ioos:station:WAVCIS:CSI06:1,2009-04-01T03:00:00Z,28.8667,-90.4833,21.01,11111222 
WAVCIS,ioos:station:WAVCIS:CSI06:1,2009-04-01T04:00:00Z,28.8667,-90.4833,21.15,11111222 
WAVCIS,ioos:station:WAVCIS:CSI06:1,2009-04-01T05:00:00Z,28.8667,-90.4833,20.93,11111222 
WAVCIS,ioos:station:WAVCIS:CSI06:1,2009-04-01T06:00:00Z,28.8667,-90.4833,21.04,11111222 
WAVCIS,ioos:station:WAVCIS:CSI06:1,2009-04-01T07:00:00Z,28.8667,-90.4833,20.47,11111222 
WAVCIS,ioos:station:WAVCIS:CSI06:1,2009-04-01T08:00:00Z,28.8667,-90.4833,20.49,11111222 
WAVCIS,ioos:station:WAVCIS:CSI06:1,2009-04-01T09:00:00Z,28.8667,-90.4833,19.63,11111222 
WAVCIS,ioos:station:WAVCIS:CSI06:1,2009-04-01T10:00:00Z,28.8667,-90.4833,18.71,11111222 
WAVCIS,ioos:station:WAVCIS:CSI06:1,2009-04-01T11:00:00Z,28.8667,-90.4833,18.0,11111222 
WAVCIS,ioos:station:WAVCIS:CSI06:1,2009-04-01T12:00:00Z,28.8667,-90.4833,17.44,11111222 
WAVCIS,ioos:station:WAVCIS:CSI06:1,2009-04-01T13:00:00Z,28.8667,-90.4833,17.08,11111222 
WAVCIS,ioos:station:WAVCIS:CSI06:1,2009-04-01T14:00:00Z,28.8667,-90.4833,16.98,11111222 
WAVCIS,ioos:station:WAVCIS:CSI06:1,2009-04-01T15:00:00Z,28.8667,-90.4833,17.53,11111222 
WAVCIS,ioos:station:WAVCIS:CSI06:1,2009-04-01T16:00:00Z,28.8667,-90.4833,17.68,11111222 
WAVCIS,ioos:station:WAVCIS:CSI06:1,2009-04-01T17:00:00Z,28.8667,-90.4833,17.79,11111222 
WAVCIS,ioos:station:WAVCIS:CSI06:1,2009-04-01T18:00:00Z,28.8667,-90.4833,18.0,11111222 
WAVCIS,ioos:station:WAVCIS:CSI06:1,2009-04-01T19:00:00Z,28.8667,-90.4833,18.23,11111222 
WAVCIS,ioos:station:WAVCIS:CSI06:1,2009-04-01T20:00:00Z,28.8667,-90.4833,18.48,11111222 
WAVCIS,ioos:station:WAVCIS:CSI06:1,2009-04-01T21:00:00Z,28.8667,-90.4833,18.84,11111222 
WAVCIS,ioos:station:WAVCIS:CSI06:1,2009-04-01T22:00:00Z,28.8667,-90.4833,18.95,11111222 
WAVCIS,ioos:station:WAVCIS:CSI06:1,2009-04-01T23:00:00Z,28.8667,-90.4833,19.02,11111222 
WAVCIS,ioos:station:WAVCIS:CSI06:1,2009-04-02T00:00:00Z,28.8667,-90.4833,19.04,11111222 
WAVCIS,ioos:station:WAVCIS:CSI06:1,2009-04-02T01:00:00Z,28.8667,-90.4833,19.54,11111222 
WAVCIS,ioos:station:WAVCIS:CSI06:1,2009-04-02T02:00:00Z,28.8667,-90.4833,19.73,11111222 
WAVCIS,ioos:station:WAVCIS:CSI06:1,2009-04-02T03:00:00Z,28.8667,-90.4833,19.76,11111222 
WAVCIS,ioos:station:WAVCIS:CSI06:1,2009-04-02T04:00:00Z,28.8667,-90.4833,20.4,11111222 
WAVCIS,ioos:station:WAVCIS:CSI06:1,2009-04-02T05:00:00Z,28.8667,-90.4833,20.97,11111222 
WAVCIS,ioos:station:WAVCIS:CSI06:1,2009-04-02T06:00:00Z,28.8667,-90.4833,21.39,11111222 
WAVCIS,ioos:station:WAVCIS:CSI06:1,2009-04-02T07:00:00Z,28.8667,-90.4833,21.41,11111222 
WAVCIS,ioos:station:WAVCIS:CSI06:1,2009-04-02T08:00:00Z,28.8667,-90.4833,21.52,11111222 
WAVCIS,ioos:station:WAVCIS:CSI06:1,2009-04-02T09:00:00Z,28.8667,-90.4833,21.72,11111222 
WAVCIS,ioos:station:WAVCIS:CSI06:1,2009-04-02T10:00:00Z,28.8667,-90.4833,21.79,11111222 
WAVCIS,ioos:station:WAVCIS:CSI06:1,2009-04-02T11:00:00Z,28.8667,-90.4833,21.71,11111222 
WAVCIS,ioos:station:WAVCIS:CSI06:1,2009-04-02T12:00:00Z,28.8667,-90.4833,18.12,11111222 
WAVCIS,ioos:station:WAVCIS:CSI06:1,2009-04-02T13:00:00Z,28.8667,-90.4833,19.57,11111222 
WAVCIS,ioos:station:WAVCIS:CSI06:1,2009-04-02T14:00:00Z,28.8667,-90.4833,20.12,11111222 
WAVCIS,ioos:station:WAVCIS:CSI06:1,2009-04-02T15:00:00Z,28.8667,-90.4833,20.85,11111222 
WAVCIS,ioos:station:WAVCIS:CSI06:1,2009-04-02T16:00:00Z,28.8667,-90.4833,20.57,11111222 
WAVCIS,ioos:station:WAVCIS:CSI06:1,2009-04-02T17:00:00Z,28.8667,-90.4833,21.5,11111222 
WAVCIS,ioos:station:WAVCIS:CSI06:1,2009-04-02T18:00:00Z,28.8667,-90.4833,22.07,11111222 
WAVCIS,ioos:station:WAVCIS:CSI06:1,2009-04-02T19:00:00Z,28.8667,-90.4833,22.17,11111222 
WAVCIS,ioos:station:WAVCIS:CSI06:1,2009-04-02T20:00:00Z,28.8667,-90.4833,22.24,11111222 
WAVCIS,ioos:station:WAVCIS:CSI06:1,2009-04-02T21:00:00Z,28.8667,-90.4833,22.42,11111222 
WAVCIS,ioos:station:WAVCIS:CSI06:1,2009-04-02T22:00:00Z,28.8667,-90.4833,20.75,11111222 
WAVCIS,ioos:station:WAVCIS:CSI06:1,2009-04-02T23:00:00Z,28.8667,-90.4833,20.75,11111222 
WAVCIS,ioos:station:WAVCIS:CSI06:1,2009-04-03T00:00:00Z,28.8667,-90.4833,20.73,11111222 
WAVCIS,ioos:station:WAVCIS:CSI06:1,2009-04-03T01:00:00Z,28.8667,-90.4833,20.62,11111222 
WAVCIS,ioos:station:WAVCIS:CSI06:1,2009-04-03T02:00:00Z,28.8667,-90.4833,20.98,11111222 
WAVCIS,ioos:station:WAVCIS:CSI06:1,2009-04-03T03:00:00Z,28.8667,-90.4833,20.82,11111222 
WAVCIS,ioos:station:WAVCIS:CSI06:1,2009-04-03T04:00:00Z,28.8667,-90.4833,20.71,11111222 
WAVCIS,ioos:station:WAVCIS:CSI06:1,2009-04-03T05:00:00Z,28.8667,-90.4833,20.01,11111222 
WAVCIS,ioos:station:WAVCIS:CSI06:1,2009-04-03T06:00:00Z,28.8667,-90.4833,18.88,11111222 
WAVCIS,ioos:station:WAVCIS:CSI06:1,2009-04-03T07:00:00Z,28.8667,-90.4833,17.91,11111222 
WAVCIS,ioos:station:WAVCIS:CSI06:1,2009-04-03T08:00:00Z,28.8667,-90.4833,16.87,11111222 
WAVCIS,ioos:station:WAVCIS:CSI06:1,2009-04-03T09:00:00Z,28.8667,-90.4833,16.36,11111222 
WAVCIS,ioos:station:WAVCIS:CSI06:1,2009-04-03T10:00:00Z,28.8667,-90.4833,15.69,11111222 
WAVCIS,ioos:station:WAVCIS:CSI06:1,2009-04-03T11:00:00Z,28.8667,-90.4833,15.49,11111222 
WAVCIS,ioos:station:WAVCIS:CSI06:1,2009-04-03T12:00:00Z,28.8667,-90.4833,15.26,11111222 
WAVCIS,ioos:station:WAVCIS:CSI06:1,2009-04-03T13:00:00Z,28.8667,-90.4833,15.44,11111222 
WAVCIS,ioos:station:WAVCIS:CSI06:1,2009-04-03T14:00:00Z,28.8667,-90.4833,15.48,11111222 
WAVCIS,ioos:station:WAVCIS:CSI06:1,2009-04-03T15:00:00Z,28.8667,-90.4833,15.07,11111222 
WAVCIS,ioos:station:WAVCIS:CSI06:1,2009-04-03T16:00:00Z,28.8667,-90.4833,15.34,11111222 
WAVCIS,ioos:station:WAVCIS:CSI06:1,2009-04-03T17:00:00Z,28.8667,-90.4833,15.72,11111222 
WAVCIS,ioos:station:WAVCIS:CSI06:1,2009-04-03T18:00:00Z,28.8667,-90.4833,16.16,11111222 
WAVCIS,ioos:station:WAVCIS:CSI06:1,2009-04-03T19:00:00Z,28.8667,-90.4833,16.34,11111222 
WAVCIS,ioos:station:WAVCIS:CSI06:1,2009-04-03T20:00:00Z,28.8667,-90.4833,16.57,11111222 
WAVCIS,ioos:station:WAVCIS:CSI06:1,2009-04-03T21:00:00Z,28.8667,-90.4833,17.06,11111222 
WAVCIS,ioos:station:WAVCIS:CSI06:1,2009-04-03T22:00:00Z,28.8667,-90.4833,17.68,11111222 
WAVCIS,ioos:station:WAVCIS:CSI06:1,2009-04-03T23:00:00Z,28.8667,-90.4833,17.97,11111222 
WAVCIS,ioos:station:WAVCIS:CSI06:1,2009-04-04T00:00:00Z,28.8667,-90.4833,17.55,11111222 
WAVCIS,ioos:station:WAVCIS:CSI06:1,2009-04-04T01:00:00Z,28.8667,-90.4833,17.36,11111222 
WAVCIS,ioos:station:WAVCIS:CSI06:1,2009-04-04T02:00:00Z,28.8667,-90.4833,17.38,11111222 
WAVCIS,ioos:station:WAVCIS:CSI06:1,2009-04-04T03:00:00Z,28.8667,-90.4833,17.21,11111222 
WAVCIS,ioos:station:WAVCIS:CSI06:1,2009-04-04T04:00:00Z,28.8667,-90.4833,17.33,11111222 
WAVCIS,ioos:station:WAVCIS:CSI06:1,2009-04-04T05:00:00Z,28.8667,-90.4833,17.3,11111222 
WAVCIS,ioos:station:WAVCIS:CSI06:1,2009-04-04T06:00:00Z,28.8667,-90.4833,17.36,11111222 
WAVCIS,ioos:station:WAVCIS:CSI06:1,2009-04-04T07:00:00Z,28.8667,-90.4833,17.5,11111222 
WAVCIS,ioos:station:WAVCIS:CSI06:1,2009-04-04T08:00:00Z,28.8667,-90.4833,17.57,11111222 
WAVCIS,ioos:station:WAVCIS:CSI06:1,2009-04-04T09:00:00Z,28.8667,-90.4833,17.61,11111222 
WAVCIS,ioos:station:WAVCIS:CSI06:1,2009-04-04T10:00:00Z,28.8667,-90.4833,17.63,11111222 
WAVCIS,ioos:station:WAVCIS:CSI06:1,2009-04-04T11:00:00Z,28.8667,-90.4833,17.86,11111222 
WAVCIS,ioos:station:WAVCIS:CSI06:1,2009-04-04T12:00:00Z,28.8667,-90.4833,18.23,11111222 
WAVCIS,ioos:station:WAVCIS:CSI06:1,2009-04-04T13:00:00Z,28.8667,-90.4833,18.69,11111222 
WAVCIS,ioos:station:WAVCIS:CSI06:1,2009-04-04T14:00:00Z,28.8667,-90.4833,19.07,11111222 
WAVCIS,ioos:station:WAVCIS:CSI06:1,2009-04-04T15:00:00Z,28.8667,-90.4833,19.37,11111222 
WAVCIS,ioos:station:WAVCIS:CSI06:1,2009-04-04T16:00:00Z,28.8667,-90.4833,19.61,11111222 
WAVCIS,ioos:station:WAVCIS:CSI06:1,2009-04-04T17:00:00Z,28.8667,-90.4833,19.78,11111222 
WAVCIS,ioos:station:WAVCIS:CSI06:1,2009-04-04T18:00:00Z,28.8667,-90.4833,19.92,11111222 
WAVCIS,ioos:station:WAVCIS:CSI06:1,2009-04-04T19:00:00Z,28.8667,-90.4833,20.05,11111222 
WAVCIS,ioos:station:WAVCIS:CSI06:1,2009-04-04T20:00:00Z,28.8667,-90.4833,20.31,11111222 
WAVCIS,ioos:station:WAVCIS:CSI06:1,2009-04-04T21:00:00Z,28.8667,-90.4833,20.49,11111222 
WAVCIS,ioos:station:WAVCIS:CSI06:1,2009-04-04T22:00:00Z,28.8667,-90.4833,20.6,11111222 
WAVCIS,ioos:station:WAVCIS:CSI06:1,2009-04-04T23:00:00Z,28.8667,-90.4833,20.58,11111222 
WAVCIS,ioos:station:WAVCIS:CSI06:1,2009-04-05T00:00:00Z,28.8667,-90.4833,20.63,11111222 
WAVCIS,ioos:station:WAVCIS:CSI06:1,2009-04-05T01:00:00Z,28.8667,-90.4833,19.66,11111222 
WAVCIS,ioos:station:WAVCIS:CSI06:1,2009-04-05T02:00:00Z,28.8667,-90.4833,19.66,11111222 
WAVCIS,ioos:station:WAVCIS:CSI06:1,2009-04-05T03:00:00Z,28.8667,-90.4833,20.07,11111222 
WAVCIS,ioos:station:WAVCIS:CSI06:1,2009-04-05T04:00:00Z,28.8667,-90.4833,20.46,11111222 
WAVCIS,ioos:station:WAVCIS:CSI06:1,2009-04-05T05:00:00Z,28.8667,-90.4833,20.9,11111222 
WAVCIS,ioos:station:WAVCIS:CSI06:1,2009-04-05T06:00:00Z,28.8667,-90.4833,21.36,11111222 
WAVCIS,ioos:station:WAVCIS:CSI06:1,2009-04-05T07:00:00Z,28.8667,-90.4833,21.4,11111222 
WAVCIS,ioos:station:WAVCIS:CSI06:1,2009-04-05T08:00:00Z,28.8667,-90.4833,21.37,11111222 
WAVCIS,ioos:station:WAVCIS:CSI06:1,2009-04-05T09:00:00Z,28.8667,-90.4833,21.47,11111222 
WAVCIS,ioos:station:WAVCIS:CSI06:1,2009-04-05T10:00:00Z,28.8667,-90.4833,21.46,11111222 
WAVCIS,ioos:station:WAVCIS:CSI06:1,2009-04-05T11:00:00Z,28.8667,-90.4833,21.64,11111222 
WAVCIS,ioos:station:WAVCIS:CSI06:1,2009-04-05T12:00:00Z,28.8667,-90.4833,21.63,11111222 
WAVCIS,ioos:station:WAVCIS:CSI06:1,2009-04-05T13:00:00Z,28.8667,-90.4833,21.33,11111222 
WAVCIS,ioos:station:WAVCIS:CSI06:1,2009-04-05T14:00:00Z,28.8667,-90.4833,21.17,11111222 
WAVCIS,ioos:station:WAVCIS:CSI06:1,2009-04-05T15:00:00Z,28.8667,-90.4833,21.04,11111222 
WAVCIS,ioos:station:WAVCIS:CSI06:1,2009-04-05T16:00:00Z,28.8667,-90.4833,21.51,11111222 
WAVCIS,ioos:station:WAVCIS:CSI06:1,2009-04-05T17:00:00Z,28.8667,-90.4833,21.58,11111222 
WAVCIS,ioos:station:WAVCIS:CSI06:1,2009-04-05T18:00:00Z,28.8667,-90.4833,20.81,11111222 
WAVCIS,ioos:station:WAVCIS:CSI06:1,2009-04-05T19:00:00Z,28.8667,-90.4833,20.42,11111222 
WAVCIS,ioos:station:WAVCIS:CSI06:1,2009-04-05T20:00:00Z,28.8667,-90.4833,21.01,11111222 
WAVCIS,ioos:station:WAVCIS:CSI06:1,2009-04-05T21:00:00Z,28.8667,-90.4833,21.1,11111222 
WAVCIS,ioos:station:WAVCIS:CSI06:1,2009-04-05T22:00:00Z,28.8667,-90.4833,21.17,11111222 
WAVCIS,ioos:station:WAVCIS:CSI06:1,2009-04-05T23:00:00Z,28.8667,-90.4833,21.14,11111222 
WAVCIS,ioos:station:WAVCIS:CSI06:1,2009-04-06T00:00:00Z,28.8667,-90.4833,21.03,11111222 
WAVCIS,ioos:station:WAVCIS:CSI06:1,2009-04-06T01:00:00Z,28.8667,-90.4833,21.11,11111222 
WAVCIS,ioos:station:WAVCIS:CSI06:1,2009-04-06T02:00:00Z,28.8667,-90.4833,21.09,11111222 
WAVCIS,ioos:station:WAVCIS:CSI06:1,2009-04-06T03:00:00Z,28.8667,-90.4833,21.01,11111222 
WAVCIS,ioos:station:WAVCIS:CSI06:1,2009-04-06T04:00:00Z,28.8667,-90.4833,21.88,11111222 
WAVCIS,ioos:station:WAVCIS:CSI06:1,2009-04-06T05:00:00Z,28.8667,-90.4833,21.29,11111222 
WAVCIS,ioos:station:WAVCIS:CSI06:1,2009-04-06T06:00:00Z,28.8667,-90.4833,19.88,11111222 
WAVCIS,ioos:station:WAVCIS:CSI06:1,2009-04-06T07:00:00Z,28.8667,-90.4833,18.15,11111222 
WAVCIS,ioos:station:WAVCIS:CSI06:1,2009-04-06T08:00:00Z,28.8667,-90.4833,16.59,11111222 
WAVCIS,ioos:station:WAVCIS:CSI06:1,2009-04-06T09:00:00Z,28.8667,-90.4833,14.92,11111222 
WAVCIS,ioos:station:WAVCIS:CSI06:1,2009-04-06T10:00:00Z,28.8667,-90.4833,14.14,11111222 
WAVCIS,ioos:station:WAVCIS:CSI06:1,2009-04-06T11:00:00Z,28.8667,-90.4833,12.72,11111222 
WAVCIS,ioos:station:WAVCIS:CSI06:1,2009-04-06T12:00:00Z,28.8667,-90.4833,10.7,11111222 
WAVCIS,ioos:station:WAVCIS:CSI06:1,2009-04-06T13:00:00Z,28.8667,-90.4833,10.09,11111222 
WAVCIS,ioos:station:WAVCIS:CSI06:1,2009-04-06T14:00:00Z,28.8667,-90.4833,9.92,11111222 
WAVCIS,ioos:station:WAVCIS:CSI06:1,2009-04-06T15:00:00Z,28.8667,-90.4833,9.93,11111222 
WAVCIS,ioos:station:WAVCIS:CSI06:1,2009-04-06T16:00:00Z,28.8667,-90.4833,10.32,11111222 
WAVCIS,ioos:station:WAVCIS:CSI06:1,2009-04-06T17:00:00Z,28.8667,-90.4833,11.31,11111222 
WAVCIS,ioos:station:WAVCIS:CSI06:1,2009-04-06T18:00:00Z,28.8667,-90.4833,11.79,11111222 
WAVCIS,ioos:station:WAVCIS:CSI06:1,2009-04-06T19:00:00Z,28.8667,-90.4833,12.6,11111222 
WAVCIS,ioos:station:WAVCIS:CSI06:1,2009-04-06T20:00:00Z,28.8667,-90.4833,13.5,11111222 
WAVCIS,ioos:station:WAVCIS:CSI06:1,2009-04-06T21:00:00Z,28.8667,-90.4833,14.19,11111222 
WAVCIS,ioos:station:WAVCIS:CSI06:1,2009-04-06T22:00:00Z,28.8667,-90.4833,14.98,11111222 
WAVCIS,ioos:station:WAVCIS:CSI06:1,2009-04-06T23:00:00Z,28.8667,-90.4833,15.07,11111222 
WAVCIS,ioos:station:WAVCIS:CSI06:1,2009-04-07T00:00:00Z,28.8667,-90.4833,15.11,11111222 
WAVCIS,ioos:station:WAVCIS:CSI06:1,2009-04-07T01:00:00Z,28.8667,-90.4833,14.79,11111222 
WAVCIS,ioos:station:WAVCIS:CSI06:1,2009-04-07T02:00:00Z,28.8667,-90.4833,14.87,11111222 
WAVCIS,ioos:station:WAVCIS:CSI06:1,2009-04-07T03:00:00Z,28.8667,-90.4833,14.59,11111222 
WAVCIS,ioos:station:WAVCIS:CSI06:1,2009-04-07T04:00:00Z,28.8667,-90.4833,14.03,11111222 
WAVCIS,ioos:station:WAVCIS:CSI06:1,2009-04-07T05:00:00Z,28.8667,-90.4833,13.11,11111222 
WAVCIS,ioos:station:WAVCIS:CSI06:1,2009-04-07T06:00:00Z,28.8667,-90.4833,12.71,11111222 
WAVCIS,ioos:station:WAVCIS:CSI06:1,2009-04-07T07:00:00Z,28.8667,-90.4833,11.99,11111222 
WAVCIS,ioos:station:WAVCIS:CSI06:1,2009-04-07T08:00:00Z,28.8667,-90.4833,11.42,11111222 
WAVCIS,ioos:station:WAVCIS:CSI06:1,2009-04-07T09:00:00Z,28.8667,-90.4833,10.92,11111222 
WAVCIS,ioos:station:WAVCIS:CSI06:1,2009-04-07T10:00:00Z,28.8667,-90.4833,10.55,11111222 
WAVCIS,ioos:station:WAVCIS:CSI06:1,2009-04-07T11:00:00Z,28.8667,-90.4833,10.18,11111222 
WAVCIS,ioos:station:WAVCIS:CSI06:1,2009-04-07T12:00:00Z,28.8667,-90.4833,9.59,11111222 
WAVCIS,ioos:station:WAVCIS:CSI06:1,2009-04-07T13:00:00Z,28.8667,-90.4833,9.16,11111222 
WAVCIS,ioos:station:WAVCIS:CSI06:1,2009-04-07T14:00:00Z,28.8667,-90.4833,8.85,11111222 
WAVCIS,ioos:station:WAVCIS:CSI06:1,2009-04-07T15:00:00Z,28.8667,-90.4833,8.7,11111222 
WAVCIS,ioos:station:WAVCIS:CSI06:1,2009-04-07T16:00:00Z,28.8667,-90.4833,8.91,11111222 
WAVCIS,ioos:station:WAVCIS:CSI06:1,2009-04-07T17:00:00Z,28.8667,-90.4833,9.29,11111222 
WAVCIS,ioos:station:WAVCIS:CSI06:1,2009-04-07T18:00:00Z,28.8667,-90.4833,9.74,11111222 
WAVCIS,ioos:station:WAVCIS:CSI06:1,2009-04-07T19:00:00Z,28.8667,-90.4833,10.38,11111222 
WAVCIS,ioos:station:WAVCIS:CSI06:1,2009-04-07T20:00:00Z,28.8667,-90.4833,10.49,11111222 
WAVCIS,ioos:station:WAVCIS:CSI06:1,2009-04-07T21:00:00Z,28.8667,-90.4833,11.04,11111222 
WAVCIS,ioos:station:WAVCIS:CSI06:1,2009-04-07T22:00:00Z,28.8667,-90.4833,11.56,11111222 
WAVCIS,ioos:station:WAVCIS:CSI06:1,2009-04-07T23:00:00Z,28.8667,-90.4833,12.43,11111222 
WAVCIS,ioos:station:WAVCIS:CSI06:1,2009-04-08T00:00:00Z,28.8667,-90.4833,12.59,11111222 
WAVCIS,ioos:station:WAVCIS:CSI06:1,2009-04-08T01:00:00Z,28.8667,-90.4833,12.84,11111222 
WAVCIS,ioos:station:WAVCIS:CSI06:1,2009-04-08T02:00:00Z,28.8667,-90.4833,13.28,11111222 
WAVCIS,ioos:station:WAVCIS:CSI06:1,2009-04-08T03:00:00Z,28.8667,-90.4833,13.5,11111222 
WAVCIS,ioos:station:WAVCIS:CSI06:1,2009-04-08T04:00:00Z,28.8667,-90.4833,13.72,11111222 
WAVCIS,ioos:station:WAVCIS:CSI06:1,2009-04-08T05:00:00Z,28.8667,-90.4833,13.68,11111222 
WAVCIS,ioos:station:WAVCIS:CSI06:1,2009-04-08T06:00:00Z,28.8667,-90.4833,13.8,11111222 
WAVCIS,ioos:station:WAVCIS:CSI06:1,2009-04-08T07:00:00Z,28.8667,-90.4833,13.96,11111222 
WAVCIS,ioos:station:WAVCIS:CSI06:1,2009-04-08T08:00:00Z,28.8667,-90.4833,14.11,11111222 
WAVCIS,ioos:station:WAVCIS:CSI06:1,2009-04-08T09:00:00Z,28.8667,-90.4833,14.18,11111222 
WAVCIS,ioos:station:WAVCIS:CSI06:1,2009-04-08T10:00:00Z,28.8667,-90.4833,14.23,11111222 
WAVCIS,ioos:station:WAVCIS:CSI06:1,2009-04-08T11:00:00Z,28.8667,-90.4833,14.28,11111222 
WAVCIS,ioos:station:WAVCIS:CSI06:1,2009-04-08T12:00:00Z,28.8667,-90.4833,14.48,11111222 
WAVCIS,ioos:station:WAVCIS:CSI06:1,2009-04-08T13:00:00Z,28.8667,-90.4833,15.02,11111222 
WAVCIS,ioos:station:WAVCIS:CSI06:1,2009-04-08T14:00:00Z,28.8667,-90.4833,15.12,11111222 
WAVCIS,ioos:station:WAVCIS:CSI06:1,2009-04-08T15:00:00Z,28.8667,-90.4833,15.29,11111222 
WAVCIS,ioos:station:WAVCIS:CSI06:1,2009-04-08T16:00:00Z,28.8667,-90.4833,15.44,11111222 
WAVCIS,ioos:station:WAVCIS:CSI06:1,2009-04-08T17:00:00Z,28.8667,-90.4833,15.82,11111222 
WAVCIS,ioos:station:WAVCIS:CSI06:1,2009-04-08T18:00:00Z,28.8667,-90.4833,16.0,11111222 
WAVCIS,ioos:station:WAVCIS:CSI06:1,2009-04-08T19:00:00Z,28.8667,-90.4833,16.34,11111222 
WAVCIS,ioos:station:WAVCIS:CSI06:1,2009-04-08T20:00:00Z,28.8667,-90.4833,16.78,11111222 
WAVCIS,ioos:station:WAVCIS:CSI06:1,2009-04-08T21:00:00Z,28.8667,-90.4833,17.23,11111222 
WAVCIS,ioos:station:WAVCIS:CSI06:1,2009-04-08T22:00:00Z,28.8667,-90.4833,17.46,11111222 
WAVCIS,ioos:station:WAVCIS:CSI06:1,2009-04-08T23:00:00Z,28.8667,-90.4833,17.46,11111222 
WAVCIS,ioos:station:WAVCIS:CSI06:1,2009-04-09T00:00:00Z,28.8667,-90.4833,17.47,11111222 
WAVCIS,ioos:station:WAVCIS:CSI06:1,2009-04-09T01:00:00Z,28.8667,-90.4833,17.47,11111222 
WAVCIS,ioos:station:WAVCIS:CSI06:1,2009-04-09T02:00:00Z,28.8667,-90.4833,17.7,11111222 
WAVCIS,ioos:station:WAVCIS:CSI06:1,2009-04-09T03:00:00Z,28.8667,-90.4833,17.87,11111222 
WAVCIS,ioos:station:WAVCIS:CSI06:1,2009-04-09T04:00:00Z,28.8667,-90.4833,17.91,11111222 
WAVCIS,ioos:station:WAVCIS:CSI06:1,2009-04-09T05:00:00Z,28.8667,-90.4833,17.91,11111222 
WAVCIS,ioos:station:WAVCIS:CSI06:1,2009-04-09T06:00:00Z,28.8667,-90.4833,18.0,11111222 
WAVCIS,ioos:station:WAVCIS:CSI06:1,2009-04-09T07:00:00Z,28.8667,-90.4833,18.02,11111222 
WAVCIS,ioos:station:WAVCIS:CSI06:1,2009-04-09T08:00:00Z,28.8667,-90.4833,18.03,11111222 
WAVCIS,ioos:station:WAVCIS:CSI06:1,2009-04-09T09:00:00Z,28.8667,-90.4833,18.07,11111222 
WAVCIS,ioos:station:WAVCIS:CSI06:1,2009-04-09T10:00:00Z,28.8667,-90.4833,18.04,11111222 
WAVCIS,ioos:station:WAVCIS:CSI06:1,2009-04-09T11:00:00Z,28.8667,-90.4833,18.01,11111222 
WAVCIS,ioos:station:WAVCIS:CSI06:1,2009-04-09T12:00:00Z,28.8667,-90.4833,17.96,11111222 
WAVCIS,ioos:station:WAVCIS:CSI06:1,2009-04-09T13:00:00Z,28.8667,-90.4833,18.19,11111222 
WAVCIS,ioos:station:WAVCIS:CSI06:1,2009-04-09T14:00:00Z,28.8667,-90.4833,18.24,11111222 
WAVCIS,ioos:station:WAVCIS:CSI06:1,2009-04-09T15:00:00Z,28.8667,-90.4833,18.58,11111222 
WAVCIS,ioos:station:WAVCIS:CSI06:1,2009-04-09T16:00:00Z,28.8667,-90.4833,18.8,11111222 
WAVCIS,ioos:station:WAVCIS:CSI06:1,2009-04-09T17:00:00Z,28.8667,-90.4833,19.12,11111222 
WAVCIS,ioos:station:WAVCIS:CSI06:1,2009-04-09T18:00:00Z,28.8667,-90.4833,19.4,11111222 
WAVCIS,ioos:station:WAVCIS:CSI06:1,2009-04-09T19:00:00Z,28.8667,-90.4833,19.52,11111222 
WAVCIS,ioos:station:WAVCIS:CSI06:1,2009-04-09T20:00:00Z,28.8667,-90.4833,19.82,11111222 
WAVCIS,ioos:station:WAVCIS:CSI06:1,2009-04-09T21:00:00Z,28.8667,-90.4833,19.9,11111222 
WAVCIS,ioos:station:WAVCIS:CSI06:1,2009-04-09T22:00:00Z,28.8667,-90.4833,20.07,11111222 
WAVCIS,ioos:station:WAVCIS:CSI06:1,2009-04-09T23:00:00Z,28.8667,-90.4833,20.11,11111222 
WAVCIS,ioos:station:WAVCIS:CSI06:1,2009-04-10T00:00:00Z,28.8667,-90.4833,20.18,11111222 
WAVCIS,ioos:station:WAVCIS:CSI06:1,2009-04-10T01:00:00Z,28.8667,-90.4833,20.17,11111222 
WAVCIS,ioos:station:WAVCIS:CSI06:1,2009-04-10T02:00:00Z,28.8667,-90.4833,20.13,11111222 
WAVCIS,ioos:station:WAVCIS:CSI06:1,2009-04-10T03:00:00Z,28.8667,-90.4833,20.1,11111222 
WAVCIS,ioos:station:WAVCIS:CSI06:1,2009-04-10T04:00:00Z,28.8667,-90.4833,20.15,11111222 
WAVCIS,ioos:station:WAVCIS:CSI06:1,2009-04-10T05:00:00Z,28.8667,-90.4833,20.04,11111222 
WAVCIS,ioos:station:WAVCIS:CSI06:1,2009-04-10T06:00:00Z,28.8667,-90.4833,20.0,11111222 
WAVCIS,ioos:station:WAVCIS:CSI06:1,2009-04-10T07:00:00Z,28.8667,-90.4833,20.02,11111222 
WAVCIS,ioos:station:WAVCIS:CSI06:1,2009-04-10T08:00:00Z,28.8667,-90.4833,20.22,11111222 
WAVCIS,ioos:station:WAVCIS:CSI06:1,2009-04-10T09:00:00Z,28.8667,-90.4833,20.16,11111222 
WAVCIS,ioos:station:WAVCIS:CSI06:1,2009-04-10T10:00:00Z,28.8667,-90.4833,20.11,11111222 
WAVCIS,ioos:station:WAVCIS:CSI06:1,2009-04-10T11:00:00Z,28.8667,-90.4833,20.1,11111222 
WAVCIS,ioos:station:WAVCIS:CSI06:1,2009-04-10T12:00:00Z,28.8667,-90.4833,19.86,11111222 
WAVCIS,ioos:station:WAVCIS:CSI06:1,2009-04-10T13:00:00Z,28.8667,-90.4833,20.1,11111222 
WAVCIS,ioos:station:WAVCIS:CSI06:1,2009-04-10T14:00:00Z,28.8667,-90.4833,20.4,11111222 
WAVCIS,ioos:station:WAVCIS:CSI06:1,2009-04-10T15:00:00Z,28.8667,-90.4833,20.05,11111222 
WAVCIS,ioos:station:WAVCIS:CSI06:1,2009-04-10T16:00:00Z,28.8667,-90.4833,20.44,11111222 
WAVCIS,ioos:station:WAVCIS:CSI06:1,2009-04-10T17:00:00Z,28.8667,-90.4833,20.87,11111222 
WAVCIS,ioos:station:WAVCIS:CSI06:1,2009-04-10T18:00:00Z,28.8667,-90.4833,20.89,11111222 
WAVCIS,ioos:station:WAVCIS:CSI06:1,2009-04-10T19:00:00Z,28.8667,-90.4833,21.19,11111222 
WAVCIS,ioos:station:WAVCIS:CSI06:1,2009-04-10T20:00:00Z,28.8667,-90.4833,21.29,11111222 
WAVCIS,ioos:station:WAVCIS:CSI06:1,2009-04-10T21:00:00Z,28.8667,-90.4833,21.58,11111222 
WAVCIS,ioos:station:WAVCIS:CSI06:1,2009-04-10T22:00:00Z,28.8667,-90.4833,21.49,11111222 
WAVCIS,ioos:station:WAVCIS:CSI06:1,2009-04-10T23:00:00Z,28.8667,-90.4833,21.3,11111222 
WAVCIS,ioos:station:WAVCIS:CSI06:1,2009-04-11T00:00:00Z,28.8667,-90.4833,21.14,11111222 
WAVCIS,ioos:station:WAVCIS:CSI06:1,2009-04-11T01:00:00Z,28.8667,-90.4833,21.24,11111222 
WAVCIS,ioos:station:WAVCIS:CSI06:1,2009-04-11T02:00:00Z,28.8667,-90.4833,21.22,11111222 
WAVCIS,ioos:station:WAVCIS:CSI06:1,2009-04-11T03:00:00Z,28.8667,-90.4833,21.25,11111222 
WAVCIS,ioos:station:WAVCIS:CSI06:1,2009-04-11T04:00:00Z,28.8667,-90.4833,21.2,11111222 
WAVCIS,ioos:station:WAVCIS:CSI06:1,2009-04-11T05:00:00Z,28.8667,-90.4833,21.02,11111222 
WAVCIS,ioos:station:WAVCIS:CSI06:1,2009-04-11T06:00:00Z,28.8667,-90.4833,20.95,11111222 
WAVCIS,ioos:station:WAVCIS:CSI06:1,2009-04-11T07:00:00Z,28.8667,-90.4833,21.15,11111222 
WAVCIS,ioos:station:WAVCIS:CSI06:1,2009-04-11T08:00:00Z,28.8667,-90.4833,21.3,11111222 
WAVCIS,ioos:station:WAVCIS:CSI06:1,2009-04-11T09:00:00Z,28.8667,-90.4833,20.63,11111222 
WAVCIS,ioos:station:WAVCIS:CSI06:1,2009-04-11T10:00:00Z,28.8667,-90.4833,20.34,11111222 
WAVCIS,ioos:station:WAVCIS:CSI06:1,2009-04-11T11:00:00Z,28.8667,-90.4833,20.35,11111222 
WAVCIS,ioos:station:WAVCIS:CSI06:1,2009-04-11T12:00:00Z,28.8667,-90.4833,20.43,11111222 
WAVCIS,ioos:station:WAVCIS:CSI06:1,2009-04-11T13:00:00Z,28.8667,-90.4833,19.75,11111222 
WAVCIS,ioos:station:WAVCIS:CSI06:1,2009-04-11T14:00:00Z,28.8667,-90.4833,19.36,11111222 
WAVCIS,ioos:station:WAVCIS:CSI06:1,2009-04-11T15:00:00Z,28.8667,-90.4833,18.6,11111222 
WAVCIS,ioos:station:WAVCIS:CSI06:1,2009-04-11T16:00:00Z,28.8667,-90.4833,18.68,11111222 
WAVCIS,ioos:station:WAVCIS:CSI06:1,2009-04-11T17:00:00Z,28.8667,-90.4833,18.59,11111222 
WAVCIS,ioos:station:WAVCIS:CSI06:1,2009-04-11T18:00:00Z,28.8667,-90.4833,18.57,11111222 
WAVCIS,ioos:station:WAVCIS:CSI06:1,2009-04-11T19:00:00Z,28.8667,-90.4833,18.87,11111222 
WAVCIS,ioos:station:WAVCIS:CSI06:1,2009-04-11T20:00:00Z,28.8667,-90.4833,18.8,11111222 
WAVCIS,ioos:station:WAVCIS:CSI06:1,2009-04-11T21:00:00Z,28.8667,-90.4833,18.62,11111222 
WAVCIS,ioos:station:WAVCIS:CSI06:1,2009-04-11T22:00:00Z,28.8667,-90.4833,18.91,11111222 
WAVCIS,ioos:station:WAVCIS:CSI06:1,2009-04-11T23:00:00Z,28.8667,-90.4833,18.87,11111222 
WAVCIS,ioos:station:WAVCIS:CSI06:1,2009-04-12T00:00:00Z,28.8667,-90.4833,18.67,11111222 
WAVCIS,ioos:station:WAVCIS:CSI06:1,2009-04-12T01:00:00Z,28.8667,-90.4833,18.63,11111222 
WAVCIS,ioos:station:WAVCIS:CSI06:1,2009-04-12T02:00:00Z,28.8667,-90.4833,18.88,11111222 
WAVCIS,ioos:station:WAVCIS:CSI06:1,2009-04-12T03:00:00Z,28.8667,-90.4833,19.17,11111222 
WAVCIS,ioos:station:WAVCIS:CSI06:1,2009-04-12T04:00:00Z,28.8667,-90.4833,19.34,11111222 